Theta_e
286 286 286 286 285 285 284 283 283 282 282 281 281 281 281 281 281 281 281 281 280 280 280 279 279 279 280 279 278 279 279 278 279 278 277 278 277 277 279 277 276 276
285 286 285 285 284 284 283 283 283 282 282 281 281 281 281 281 280 280 280 280 280 279 279 279 279 278 278 278 277 278 277 277 277 279 277 276 276 276 277 276 276 276
284 284 284 284 284 283 283 283 282 282 282 281 281 281 281 280 280 279 279 279 279 279 278 278 277 277 277 276 276 277 277 276 276 276 277 276 276 276 276 276 276 276
283 284 283 283 283 283 282 282 281 281 281 281 281 282 282 281 279 279 278 279 278 277 277 277 277 276 276 276 276 276 276 276 275 275 275 275 276 275 275 276 276 275
283 283 283 283 283 282 282 282 281 281 281 281 280 280 280 279 278 277 277 277 277 276 276 276 276 276 275 275 275 275 276 275 275 275 274 274 274 275 276 276 274 274
283 283 283 283 282 282 281 281 281 281 280 279 279 279 278 277 277 277 276 276 276 276 276 275 275 275 275 274 275 274 274 275 274 274 273 273 274 274 276 275 274 273
282 282 282 282 281 281 281 280 280 280 279 279 278 278 277 277 277 276 276 276 276 276 275 275 274 274 274 274 274 273 273 274 273 273 273 273 273 273 274 274 273 273
282 282 282 281 281 280 280 280 279 279 278 278 277 277 277 277 276 276 276 276 275 275 274 274 273 274 273 273 273 273 272 274 273 272 272 272 272 272 273 275 273 273
282 281 281 281 280 280 279 279 278 278 278 277 277 276 276 276 276 276 275 275 275 274 274 273 273 272 272 272 272 271 271 271 272 272 272 272 272 272 272 272 272 272
281 281 280 280 280 279 278 278 278 277 277 277 276 276 276 275 275 275 275 274 274 273 273 272 272 272 272 272 272 271 271 272 271 272 272 272 272 272 272 272 272 272
281 280 280 279 279 278 278 277 277 276 276 276 275 275 275 275 274 274 274 274 274 273 272 272 272 271 272 271 271 271 271 271 271 272 272 272 272 272 275 272 272 272
280 280 280 279 278 277 277 276 276 276 276 275 275 275 274 274 274 274 274 273 272 272 271 271 270 270 270 270 270 270 271 272 272 272 272 272 272 272 272 272 272 271
280 280 279 278 278 277 276 275 275 275 275 275 275 274 274 273 273 273 272 272 271 271 271 271 270 270 270 269 270 271 271 272 271 271 272 272 272 272 272 272 272 271
280 280 279 278 277 276 275 275 275 274 274 274 274 274 273 273 272 272 271 271 270 270 270 269 269 269 269 270 270 270 270 270 271 271 271 271 271 272 272 272 272 272
280 280 278 277 276 275 275 274 274 274 273 273 273 273 273 272 271 271 271 270 270 270 269 270 270 270 270 270 270 270 270 271 271 270 270 270 270 270 270 270 270 271
281 280 279 278 276 275 275 275 274 273 273 273 274 274 273 271 270 270 270 270 270 269 269 270 270 270 273 276 275 271 271 272 273 272 271 270 269 269 269 270 270 270
280 279 278 277 277 276 275 274 274 273 274 274 273 272 271 270 270 270 269 269 269 269 269 269 270 270 275 277 278 277 274 273 272 271 272 272 271 270 269 269 269 270
280 279 278 277 277 276 275 275 274 274 273 272 271 270 269 268 268 269 269 269 269 268 268 269 269 274 277 278 278 278 277 274 273 273 272 272 272 271 270 269 269 269
280 279 278 278 277 276 275 274 273 273 272 271 271 271 268 268 269 269 268 268 268 268 268 268 268 275 277 278 278 278 278 277 274 273 272 272 272 272 272 271 269 269
280 279 279 278 277 276 274 273 273 272 272 271 270 269 269 268 267 267 267 267 268 267 267 267 267 273 277 278 278 278 278 277 274 273 272 272 272 272 272 271 269 268
280 279 279 278 276 275 274 273 273 272 271 270 270 270 269 268 268 267 267 267 266 266 266 266 267 274 276 278 278 278 278 277 274 273 272 272 272 272 271 269 268 269
279 279 279 277 276 274 273 273 272 271 271 270 269 268 266 266 265 265 266 266 266 265 265 266 266 274 276 277 278 278 278 275 274 272 271 271 270 270 269 269 269 269
279 279 278 277 275 274 273 273 272 271 270 269 268 268 268 267 266 266 266 266 265 264 265 265 264 270 275 277 278 278 277 273 272 270 269 268 268 269 270 269 269 269
279 279 278 276 275 274 273 274 273 272 270 269 269 268 267 267 266 265 265 265 265 264 265 264 264 267 273 276 277 278 276 271 271 269 268 268 268 269 269 269 269 272
280 279 278 276 275 275 274 273 272 271 270 268 268 268 268 266 265 265 263 263 263 264 266 265 263 265 272 275 277 277 276 272 270 268 268 268 268 268 269 269 269 271
280 279 278 277 276 275 274 273 271 268 268 268 267 266 266 265 265 264 264 263 263 262 263 265 264 263 265 273 276 277 277 273 270 268 267 267 268 268 267 268 269 269
Wind_Speed
8 7 9 8 8 8 9 9 7 9 7 6 7 6 6 5 4 5 5 6 5 6 5 5 5 5 5 5 4 4 4 4 4 4 4 5 4 4 5 4 4 3
8 8 7 8 7 6 7 8 8 9 8 7 6 6 5 5 4 5 5 5 5 5 5 5 5 4 4 4 4 4 4 4 4 3 4 5 3 4 4 4 4 3
8 8 9 10 10 9 9 7 7 7 8 7 6 6 6 4 5 4 5 5 5 5 5 5 5 4 4 4 4 4 5 4 5 4 4 4 3 4 3 3 3 3
7 8 8 8 9 10 8 9 7 7 6 7 6 6 6 5 5 5 5 5 5 5 5 4 4 4 4 4 4 5 4 4 3 4 3 3 3 2 3 2 2 4
9 8 7 8 7 8 8 9 9 7 7 7 7 6 7 6 5 5 5 4 5 4 4 4 4 4 4 4 4 4 3 4 3 3 3 3 2 2 2 3 3 3
6 7 7 8 8 9 9 8 8 8 8 7 7 6 6 6 5 5 5 5 4 5 4 4 4 4 4 4 4 3 3 3 2 3 3 3 2 3 2 3 3 3
9 8 8 8 8 7 8 8 7 7 7 7 6 6 6 6 6 5 4 4 4 4 4 4 4 4 3 3 3 3 2 3 3 3 3 2 2 3 3 3 3 3
9 7 8 8 8 8 8 8 7 8 7 7 7 6 6 7 6 4 4 4 4 4 4 4 3 3 3 3 3 2 2 2 2 3 2 2 2 2 3 2 2 2
9 8 8 9 9 8 8 8 7 7 6 8 7 6 5 6 6 5 5 4 4 4 4 3 3 3 3 3 2 2 2 2 2 2 1 1 2 1 1 1 2 1
9 8 9 9 9 8 9 7 7 7 6 7 7 6 7 5 5 6 5 5 4 4 3 3 3 3 2 2 2 2 2 1 1 1 1 1 1 1 1 1 0 1
10 9 10 9 9 8 8 8 7 7 6 7 7 7 6 6 5 4 4 4 5 4 3 3 3 3 2 1 2 3 2 1 1 1 1 1 1 0 1 1 1 1
11 10 10 10 9 8 9 8 8 7 7 6 7 8 6 5 6 5 5 4 4 4 3 3 3 3 3 2 2 2 3 2 2 2 1 1 0 0 0 1 1 2
11 11 10 10 9 9 8 7 8 7 7 8 6 7 8 7 5 5 4 4 4 4 3 3 3 3 2 3 3 3 3 2 2 1 1 0 0 1 1 1 2 2
10 10 10 9 8 8 8 8 7 7 7 6 6 7 7 7 7 6 4 4 4 4 3 3 3 3 3 3 3 3 2 2 1 0 0 1 1 1 1 1 2 2
10 9 8 9 9 9 8 8 8 7 6 6 6 6 6 6 5 5 5 4 4 4 3 3 4 4 3 4 4 3 3 2 1 1 1 1 2 2 2 3 3 3
11 10 10 10 10 10 10 9 8 8 7 7 7 6 6 6 5 4 5 5 4 4 4 4 4 3 5 9 7 5 3 3 2 2 2 2 2 3 3 3 3 3
11 11 11 11 11 10 8 9 9 8 7 7 6 6 7 6 6 6 5 4 5 4 5 5 4 3 10 10 10 10 6 4 3 3 3 4 3 3 4 3 3 3
12 12 12 12 10 10 10 9 8 8 8 8 7 7 6 5 6 6 5 4 4 4 5 5 4 8 12 11 10 9 8 5 4 4 4 4 4 4 3 3 3 3
12 13 12 12 11 10 9 8 9 9 8 8 9 7 6 7 7 7 6 5 5 6 5 5 4 10 12 12 11 10 10 8 4 5 4 5 5 5 4 3 3 2
13 13 13 12 10 10 9 10 10 11 9 7 6 6 7 6 5 7 6 6 6 6 5 4 5 9 12 11 11 11 10 8 5 5 5 5 6 6 5 4 3 3
13 12 13 11 11 11 10 11 11 9 9 8 9 10 10 10 10 8 7 6 5 5 5 6 6 11 12 12 12 12 11 9 5 5 5 6 6 6 5 3 3 4
14 13 13 11 11 11 11 12 11 11 11 9 7 6 4 4 4 4 7 7 6 5 5 7 6 12 13 13 13 12 12 5 5 6 6 6 6 6 4 4 4 5
14 14 13 12 12 12 12 12 12 10 8 7 8 8 8 8 9 8 7 7 7 6 7 7 5 10 13 13 13 13 9 4 5 4 4 4 5 5 5 5 4 4
13 13 13 13 12 14 15 13 10 8 9 9 11 11 10 10 8 7 6 7 8 8 8 7 7 9 13 13 13 13 10 6 5 4 5 6 5 6 4 4 5 10
12 12 12 13 14 14 13 13 12 12 9 8 8 7 8 7 7 7 6 5 6 7 8 8 7 8 11 13 14 13 10 5 6 5 6 6 5 5 5 5 5 8
11 12 12 13 15 12 10 11 7 6 8 9 8 7 7 7 7 7 8 7 6 6 7 8 8 7 6 12 14 14 15 7 5 6 7 6 7 6 6 5 5 6
Wind_Direction
140 141 137 132 129 132 135 131 127 122 122 123 122 131 124 128 111 102 95 86 83 82 77 73 65 61 56 56 56 68 69 79 66 55 50 51 40 67 53 46 37 46
140 132 126 121 120 121 121 124 128 127 127 127 127 122 114 106 101 104 104 98 92 92 89 83 76 73 66 64 60 69 67 72 58 38 50 42 27 56 52 56 46 28
135 132 135 139 137 133 127 122 122 124 124 130 125 116 116 109 107 104 108 107 101 96 89 88 81 75 74 69 69 72 81 74 56 38 50 37 28 48 47 59 41 40
134 137 137 135 133 130 129 125 121 119 123 122 125 124 116 116 110 109 104 101 102 97 94 87 89 79 73 65 72 73 87 80 77 61 45 31 29 50 26 54 52 37
140 137 136 130 126 125 127 128 131 134 131 129 117 117 119 120 115 112 109 104 105 101 97 95 86 79 72 66 70 71 59 67 50 70 70 38 4 47 17 63 52 35
133 139 139 135 135 134 133 135 139 136 133 127 131 125 126 122 119 120 120 116 113 109 103 97 85 72 75 72 73 78 86 71 55 81 59 52 2 30 44 53 51 33
147 146 138 132 128 132 133 139 139 134 132 134 126 130 133 125 124 128 124 124 121 111 104 100 90 77 77 87 84 77 65 93 65 70 62 18 44 12 22 50 46 33
149 143 137 134 134 139 141 144 142 138 139 136 134 143 134 132 131 132 129 124 117 112 107 107 104 101 94 93 91 81 50 65 71 61 62 29 47 31 5 19 43 42
146 145 141 141 142 148 149 148 143 140 145 142 142 140 133 135 139 135 133 123 117 119 114 114 113 104 99 99 100 114 96 54 71 83 76 49 35 5 352 357 24 17
151 146 145 148 151 156 153 151 146 148 148 142 143 139 137 138 135 139 131 133 131 125 128 123 111 113 89 107 131 120 113 92 46 57 79 80 92 12 353 14 337 352
155 154 153 157 157 159 157 151 153 151 152 149 144 143 143 136 134 132 138 141 141 139 134 134 138 128 118 97 102 131 132 110 65 77 73 75 74 76 358 63 338 322
160 158 161 163 163 161 160 160 157 156 155 155 152 147 142 144 146 150 156 154 137 138 140 145 141 136 144 161 146 102 84 86 93 87 75 72 21 0 30 335 320 293
166 167 165 165 167 164 159 161 163 159 157 159 161 152 150 153 153 149 157 139 135 135 148 150 148 145 149 145 122 99 98 89 64 64 39 328 326 308 319 299 291 277
170 166 165 168 165 159 163 164 160 160 159 159 156 157 157 156 158 156 153 143 138 150 157 149 153 158 149 133 118 119 115 106 125 166 231 317 293 301 283 275 279 285
165 166 164 165 161 160 163 166 166 162 160 163 164 158 151 148 145 150 145 143 149 154 169 171 174 188 162 151 135 133 141 151 184 202 223 253 273 271 277 272 277 278
168 166 169 166 165 169 171 167 164 163 163 164 168 160 145 143 142 150 156 156 163 177 183 192 190 191 180 177 166 155 158 168 190 208 226 231 240 260 262 261 257 255
169 172 168 172 173 170 168 167 167 164 166 168 165 160 155 152 151 160 168 169 173 182 192 198 199 195 195 190 185 176 166 183 197 209 228 236 235 239 244 247 255 254
175 170 172 175 172 177 173 172 166 166 170 172 166 162 162 151 164 180 172 174 178 188 199 204 204 206 204 199 194 194 186 183 200 214 221 236 239 235 241 235 239 245
173 173 176 176 180 175 171 166 171 174 172 171 181 172 152 167 182 174 184 181 183 194 205 209 211 217 210 202 201 198 203 200 203 213 223 230 236 242 240 241 231 239
176 178 181 181 175 171 169 174 177 184 182 178 161 158 172 175 179 187 182 188 192 194 203 212 214 225 214 209 204 204 205 208 206 213 224 230 235 237 238 230 234 239
180 181 183 178 174 173 176 182 185 181 177 177 176 178 177 184 186 187 193 187 191 189 197 217 224 224 220 213 208 205 209 208 209 217 222 233 234 235 236 232 235 238
181 184 184 178 175 178 181 186 188 185 183 179 177 180 177 159 186 182 185 189 188 184 196 224 234 229 225 220 213 208 208 201 207 219 225 229 234 231 235 236 234 235
185 184 184 180 178 179 187 191 187 190 187 169 175 184 180 188 191 191 186 179 181 186 199 228 233 237 233 227 219 209 205 177 199 210 225 227 236 231 231 233 228 233
187 187 185 181 179 188 193 195 192 188 183 178 182 181 190 196 184 180 184 181 182 193 198 214 232 235 236 233 223 215 204 175 194 200 229 233 231 236 228 234 233 246
190 189 186 183 188 197 194 190 190 190 181 178 192 188 193 169 172 180 183 190 191 190 199 211 233 236 236 235 230 221 213 173 191 203 223 226 218 229 232 221 232 243
190 189 189 188 197 197 193 198 180 160 174 183 190 182 175 175 177 182 185 197 186 183 204 214 226 236 232 239 237 230 222 195 177 200 219 221 221 223 222 231 221 226